Location: Hartman Creek State Park
(44.3257°N, 89.2134°W)
Time: 11:53:21
(UTC-05:00)

Cosmos 2263 Rocket - Visible Passes

Search period start: 24 October 2014 00:00
Search period end: 02 November 2014 23:00
Orbit: 825 x 848 km, 71.0° (Epoch: 24 October)

Date Brightness Start Highest point End Pass type
(mag) Time Alt. Az. Time Alt. Az. Time Alt. Az.
24 Oct 5.5 06:52:19 10° SE 06:55:31 16° E 06:58:43 10° ENE visible
24 Oct 5.2 19:10:05 10° WNW 19:13:46 18° W 19:17:28 10° SW visible
25 Oct 5.6 06:36:05 10° SE 06:38:57 14° E 06:41:49 10° ENE visible
25 Oct 5.2 18:53:16 10° NW 18:57:12 20° W 19:01:08 10° SW visible
26 Oct 5.6 06:19:56 10° ESE 06:22:23 13° E 06:24:51 10° ENE visible
26 Oct 5.1 18:36:29 10° NW 18:40:38 22° W 18:44:46 10° SSW visible
27 Oct 5.7 06:03:53 10° ESE 06:05:50 12° E 06:07:47 10° ENE visible
27 Oct 5.1 18:19:44 10° NW 18:24:03 23° WSW 18:28:23 10° SSW visible
28 Oct 5.7 05:48:05 10° ESE 05:49:17 11° E 05:50:29 10° E visible
30 Oct 2.6 06:53:30 10° SSW 06:58:59 68° ESE 07:04:31 10° NNE visible
31 Oct 2.7 06:36:55 10° S 06:42:23 63° ESE 06:47:53 10° NNE visible
01 Nov 2.9 06:20:21 10° S 06:25:46 58° ESE 06:31:13 10° NNE visible
02 Nov 3.0 05:03:47 10° S 05:09:10 53° ESE 05:14:34 10° NE visible
